,,PA_Meas_PMT16A,,PR_Meas_QMR101_102,,RH_Meas_QMH101,,SR_Meas_QMS101,,TA_Meas_QMH101,,GenWind,,GenWind,
time,status,PA,status,PR,status,RH,status,SR,status,TA,status,DirAvg,status,SpdAvg,
2016-08-06, 00:00:04,VALID,916.084,VALID,0,VALID,60.3165,VALID,145.368,VALID,26.7182,VALID,40,VALID,0,
2016-08-06, 00:01:04,VALID,916.128,VALID,0,VALID,60.1488,VALID,154.93,VALID,26.6791,VALID,35,VALID,0.782031,
2016-08-06, 00:02:04,VALID,916.115,VALID,0,VALID,60.9797,VALID,166.964,VALID,26.6596,VALID,7,VALID,0,
2016-08-06, 00:03:04,VALID,916.078,VALID,0,VALID,59.9734,VALID,183.08,VALID,26.6987,VALID,26,VALID,0.00429688,
2016-08-06, 00:04:04,VALID,916.082,VALID,0,VALID,61.216,VALID,200.485,VALID,26.603,VALID,36,VALID,0.201953,
2016-08-06, 00:05:04,VALID,916.065,VALID,0,VALID,60.2936,VALID,195.221,VALID,26.5444,VALID,24,VALID,0.707422,
2016-08-06, 00:06:04,VALID,916.09,VALID,0,VALID,62.0165,VALID,191.138,VALID,26.5444,VALID,321,VALID,0.00117188,
2016-08-06, 00:07:04,VALID,916.083,VALID,0,VALID,59.7066,VALID,183.509,VALID,26.603,VALID,328,VALID,0.00507812,
2016-08-06, 00:08:04,VALID,916.115,VALID,0,VALID,59.92,VALID,166.641,VALID,26.6812,VALID,204,VALID,0,
2016-08-06, 00:09:04,VALID,916.083,VALID,0,VALID,58.8909,VALID,164.063,VALID,26.7593,VALID,53,VALID,0,
2016-08-06, 00:10:04,VALID,916.115,VALID,0,VALID,60.8882,VALID,177.17,VALID,26.7593,VALID,25,VALID,0,
2016-08-06, 00:11:04,VALID,916.109,VALID,0,VALID,60.3241,VALID,192.32,VALID,26.8199,VALID,26,VALID,0,
2016-08-06, 00:12:04,VALID,916.129,VALID,0,VALID,58.3039,VALID,188.237,VALID,26.857,VALID,27,VALID,0,
2016-08-06, 00:13:04,VALID,916.107,VALID,0,VALID,59.4169,VALID,173.41,VALID,26.896,VALID,24,VALID,0,
2016-08-06, 00:14:04,VALID,916.154,VALID,0,VALID,59.3178,VALID,153.748,VALID,26.9156,VALID,24,VALID,0,
2016-08-06, 00:15:04,VALID,916.103,VALID,0,VALID,60.0649,VALID,143.112,VALID,26.859,VALID,24,VALID,0,
2016-08-06, 00:16:04,VALID,916.125,VALID,0,VALID,59.8972,VALID,146.872,VALID,26.8374,VALID,26,VALID,0,
2016-08-06, 00:17:04,VALID,916.131,VALID,0,VALID,60.6443,VALID,152.566,VALID,26.8785,VALID,29,VALID,0,
2016-08-06, 00:18:04,VALID,916.11,VALID,0,VALID,60.934,VALID,154.93,VALID,26.8785,VALID,24,VALID,0,
2016-08-06, 00:19:04,VALID,916.115,VALID,0,VALID,60.347,VALID,149.236,VALID,26.8981,VALID,25,VALID,0,
2016-08-06, 00:20:04,VALID,916.146,VALID,0,VALID,60.6062,VALID,137.847,VALID,26.8199,VALID,33,VALID,0,
2016-08-06, 00:21:04,VALID,916.174,VALID,0,VALID,61.3837,VALID,132.045,VALID,26.7613,VALID,16,VALID,0,
2016-08-06, 00:22:04,VALID,916.157,VALID,0,VALID,63.8461,VALID,130.863,VALID,26.6832,VALID,89,VALID,0,
2016-08-06, 00:23:04,VALID,916.131,VALID,0,VALID,62.6492,VALID,133.549,VALID,26.6401,VALID,84,VALID,0,
2016-08-06, 00:24:04,VALID,916.15,VALID,0,VALID,62.4815,VALID,137.202,VALID,26.7007,VALID,84,VALID,0,
2016-08-06, 00:25:04,VALID,916.152,VALID,0,VALID,60.7053,VALID,148.054,VALID,26.6616,VALID,103,VALID,0,
2016-08-06, 00:26:04,VALID,916.131,VALID,0,VALID,62.4663,VALID,161.162,VALID,26.4077,VALID,28,VALID,1.35195,
2016-08-06, 00:27:04,VALID,916.147,VALID,0,VALID,64.0519,VALID,159.658,VALID,26.2514,VALID,26,VALID,0,
2016-08-06, 00:28:04,VALID,916.147,VALID,0,VALID,63.221,VALID,152.889,VALID,26.2885,VALID,27,VALID,0,
2016-08-06, 00:29:04,VALID,916.168,VALID,0,VALID,63.2744,VALID,149.88,VALID,26.3686,VALID,27,VALID,0,
2016-08-06, 00:30:04,VALID,916.163,VALID,0,VALID,63.099,VALID,136.235,VALID,26.4272,VALID,10,VALID,0.000390625,
2016-08-06, 00:31:04,VALID,916.161,VALID,0,VALID,63.2439,VALID,120.979,VALID,26.2905,VALID,38,VALID,0,
2016-08-06, 00:32:04,VALID,916.177,VALID,0,VALID,63.991,VALID,110.987,VALID,26.3296,VALID,38,VALID,0,
2016-08-06, 00:33:04,VALID,916.217,VALID,0,VALID,65.1802,VALID,113.028,VALID,26.3296,VALID,37,VALID,0,
2016-08-06, 00:34:04,VALID,916.203,VALID,0,VALID,63.6784,VALID,120.227,VALID,26.2534,VALID,24,VALID,1.24766,
2016-08-06, 00:35:04,VALID,916.244,VALID,0,VALID,62.4282,VALID,127.103,VALID,26.1147,VALID,29,VALID,0,
2016-08-06, 00:36:04,VALID,916.241,VALID,0,VALID,62.5959,VALID,123.557,VALID,26.1362,VALID,350,VALID,0,
2016-08-06, 00:37:04,VALID,916.219,VALID,0,VALID,64.9668,VALID,113.136,VALID,26.1167,VALID,350,VALID,0,
2016-08-06, 00:38:04,VALID,916.207,VALID,0,VALID,65.5919,VALID,110.235,VALID,26.1948,VALID,351,VALID,0,
2016-08-06, 00:39:04,VALID,916.215,VALID,0,VALID,64.7609,VALID,103.036,VALID,26.2925,VALID,350,VALID,0,
2016-08-06, 00:40:04,VALID,916.197,VALID,0,VALID,63.1295,VALID,97.2342,VALID,26.3706,VALID,322,VALID,0,
2016-08-06, 00:41:04,VALID,916.237,VALID,0,VALID,64.0062,VALID,95.9449,VALID,26.4097,VALID,8,VALID,0.0195313,
2016-08-06, 00:42:04,VALID,916.214,VALID,0,VALID,62.7255,VALID,95.3003,VALID,26.3316,VALID,31,VALID,0,
2016-08-06, 00:43:04,VALID,916.249,VALID,0,VALID,63.7013,VALID,94.3333,VALID,26.2534,VALID,17,VALID,0,
2016-08-06, 00:44:04,VALID,916.247,VALID,0,VALID,63.0761,VALID,94.7631,VALID,26.2534,VALID,6,VALID,0,
2016-08-06, 00:45:04,VALID,916.273,VALID,0,VALID,63.4878,VALID,102.821,VALID,26.1362,VALID,10,VALID,0,
2016-08-06, 00:46:04,VALID,916.308,VALID,0,VALID,64.334,VALID,103.358,VALID,25.9604,VALID,40,VALID,0,
2016-08-06, 00:47:04,VALID,916.321,VALID,0,VALID,64.5322,VALID,103.466,VALID,25.8628,VALID,39,VALID,0,
2016-08-06, 00:48:04,VALID,916.337,VALID,0,VALID,64.8524,VALID,107.763,VALID,25.9038,VALID,34,VALID,0,
2016-08-06, 00:49:04,VALID,916.368,VALID,0,VALID,64.4941,VALID,112.276,VALID,25.9604,VALID,35,VALID,0,
2016-08-06, 00:50:04,VALID,916.381,VALID,0,VALID,64.212,VALID,114.855,VALID,26.0776,VALID,35,VALID,0,
2016-08-06, 00:51:04,VALID,916.414,VALID,0,VALID,64.7838,VALID,105.83,VALID,26.1773,VALID,3,VALID,0,
2016-08-06, 00:52:04,VALID,916.466,VALID,0,VALID,64.5856,VALID,90.4654,VALID,26.1558,VALID,3,VALID,0,
2016-08-06, 00:53:04,VALID,916.463,VALID,0,VALID,66.0569,VALID,83.8041,VALID,26.2534,VALID,2,VALID,0,
2016-08-06, 00:54:04,VALID,916.478,VALID,0,VALID,63.6631,VALID,85.8455,VALID,26.2144,VALID,19,VALID,0,
2016-08-06, 00:55:04,VALID,916.473,VALID,0,VALID,65.8663,VALID,87.2422,VALID,26.1167,VALID,7,VALID,0,
2016-08-06, 00:56:04,VALID,916.473,VALID,0,VALID,65.8892,VALID,86.9199,VALID,26.019,VALID,44,VALID,0,
2016-08-06, 00:57:04,VALID,916.479,VALID,0,VALID,66.3085,VALID,89.8208,VALID,25.978,VALID,44,VALID,0,
2016-08-06, 00:58:04,VALID,916.512,VALID,0,VALID,66.4914,VALID,87.1348,VALID,25.9995,VALID,44,VALID,0,
2016-08-06, 00:59:04,VALID,916.565,VALID,0,VALID,66.4838,VALID,73.9195,VALID,25.9214,VALID,10,VALID,0,
2016-08-06, 01:00:04,VALID,916.401,VALID,0,VALID,68.3973,VALID,54.4727,VALID,25.7847,VALID,360,VALID,0,
2016-08-06, 01:01:04,VALID,917.465,VALID,0,VALID,68.3515,VALID,44.9104,VALID,25.689,VALID,1,VALID,0,
2016-08-06, 01:02:04,VALID,917.084,VALID,0,VALID,69.2435,VALID,42.7616,VALID,25.5113,VALID,1,VALID,0,
2016-08-06, 01:03:04,VALID,917.363,VALID,0,VALID,69.9601,VALID,39.9681,VALID,25.355,VALID,23,VALID,0,
2016-08-06, 01:04:04,VALID,917.515,VALID,0,VALID,69.9067,VALID,37.1746,VALID,25.2183,VALID,20,VALID,0.0367187,
2016-08-06, 01:05:04,VALID,917.896,VALID,0,VALID,70.2879,VALID,40.2904,VALID,25.0817,VALID,352,VALID,0,
2016-08-06, 01:07:04,VALID,913.46,VALID,0,VALID,72.2929,VALID,32.877,VALID,24.7888,VALID,26,VALID,0,
2016-08-06, 14:54:04,VALID,919.197,VALID,0,INVALID,114.496,VALID,100.78,VALID,19.8033,VALID,356,VALID,0,
2016-08-06, 14:55:04,VALID,919.218,VALID,0,INVALID,114.565,VALID,104.97,VALID,19.8603,VALID,356,VALID,0,
2016-08-06, 14:56:04,VALID,919.268,VALID,0,INVALID,114.435,VALID,108.301,VALID,19.9383,VALID,356,VALID,0,
2016-08-06, 14:57:04,VALID,919.264,VALID,0,INVALID,113.795,VALID,129.681,VALID,20.0163,VALID,356,VALID,0,
2016-08-06, 14:58:04,VALID,919.279,VALID,0,INVALID,113.261,VALID,200.7,VALID,20.0749,INVALID,360,VALID,0,
2016-08-06, 14:59:04,VALID,919.275,VALID,0,INVALID,113.238,VALID,117.97,VALID,20.1139,INVALID,360,VALID,0,
2016-08-06, 15:00:04,VALID,919.276,VALID,0,INVALID,112.903,VALID,114.425,VALID,20.1139,INVALID,360,VALID,0,
2016-08-06, 15:01:04,VALID,919.289,VALID,0,INVALID,113.154,VALID,115.929,VALID,20.1724,VALID,356,VALID,0,
2016-08-06, 15:02:04,VALID,919.317,VALID,0,INVALID,112.933,VALID,119.582,VALID,20.1919,INVALID,360,VALID,0,
2016-08-06, 15:03:04,VALID,919.329,VALID,0,INVALID,112.857,VALID,122.053,VALID,20.2114,VALID,356,VALID,0,
2016-08-06, 15:04:04,VALID,919.313,VALID,0,INVALID,112.636,VALID,125.921,VALID,20.2114,VALID,356,VALID,0,
